Current weather by "City, St" or "zip code"  
 

Current Conditions: North Platte, North Platte Regional Airport, NE

Fair


55.0 F

Last Updated on Oct 29 2020, 6:53 pm CDT
Humidity: 53%
Wind Speed: 3.5 mph
Barometer 30.03 in
Dewpoint: 37.9 F
Visibility: 10.00 mi
Precip: --
Heat Index: NA
Wind Chill: NA
Current conditions at:

North Platte, North Platte Regional Airport, NE (KLBF)

Lat: 41.12194 Lon: 100.66833

Local Radar Image active severe weather and emergency alerts image image weather storm and storm spotter reports image weather observation monitoring service image
Local
Radar
Active
Alerts
Storm Reports Obs
Monitoring

Sign-up For Email & Text Message Weather Alert Notification Services



Advertise Here

Observation History for North Platte, North Platte Regional Airport, NE


Time Wind
(mph)
Vis
(mi)
Weather Precip (in) Temperature (F) Relative
Humidity
Wind
Chill
(F)
Heat
Index
(F)
Pressure
Air Dwpt altimeter
(in)
sea level
(mb)
Rmks
6:53 pm CDT 3.5 10.00 Fair -- 55.0 37.9 53% NA NA 30.03 1017.6
5:53 pm CDT S 11.5 10.00 Fair -- 61.0 37.9 43% 59 NA 30.03 1016.9
4:53 pm CDT S 11.5 10.00 Fair -- 65.0 37.0 36% NA NA 30.02 1016.5
3:53 pm CDT SW 10.4 10.00 Fair -- 64.0 37.9 38% NA NA 30.02 1017.0
2:53 pm CDT SW 11.5 G 20.7 10.00 Fair -- 60.0 37.0 42% 58 NA 30.06 1018.4
1:53 pm CDT S 13.8 10.00 Fair -- 59.0 37.9 46% 56 NA 30.10 1019.6
12:53 pm CDT SW 10.4 10.00 Fair -- 55.0 36.0 49% 52 NA 30.14 1021.3
11:53 am CDT SW 6.9 10.00 Overcast -- 46.0 36.0 68% 42 NA 30.16 1022.3
10:53 am CDT N 0.0 6.00 Fog/Mist -- 35.0 32.0 89% NA NA 30.19 1024.2
9:53 am CDT N 0.0 1.00 Fog/Mist -- 34.0 30.9 89% NA NA 30.19 1024.3
8:53 am CDT N 0.0 0.75 Fog/Mist -- 32.0 28.9 88% NA NA 30.17 1023.3
7:53 am CDT N 0.0 10.00 Overcast -- 33.0 30.0 89% NA NA 30.17 1022.9
6:53 am CDT N 0.0 10.00 Overcast -- 34.0 30.9 89% NA NA 30.17 1022.6
5:53 am CDT NW 9.2 10.00 Overcast -- 35.0 30.9 85% 28 NA 30.18 1022.6
4:53 am CDT NW 10.4 10.00 Overcast -- 34.0 30.9 89% 26 NA 30.18 1022.6
3:53 am CDT SW 4.6 10.00 Fair -- 30.0 27.0 88% 25 NA 30.17 1022.4
2:53 am CDT N 0.0 10.00 Fair -- 32.0 28.9 88% NA NA 30.16 1021.9
12:53 am CDT NW 6.9 10.00 Fair -- 33.0 28.9 85% 27 NA 30.16 1022.3
11:53 pm CDT NW 9.2 10.00 Fair -- 36.0 30.9 82% 29 NA 30.18 1022.9
10:53 pm CDT W 4.6 10.00 Fair -- 34.0 30.0 85% 30 NA 30.15 1022.7
9:53 pm CDT NW 5.8 10.00 Fair -- 33.0 28.0 82% 28 NA 30.14 1022.9
8:53 pm CDT N 5.8 10.00 Fair -- 41.0 30.9 67% 37 NA 30.13 1022.7
7:53 pm CDT NE 4.6 10.00 Fair -- 45.0 30.9 58% 43 NA 30.08 1020.9

Regional Weather Observation


Thedford, Thomas County Airport, NE (KTIF)

Fair
57.0 F

Ogallala, Searle Field Airport, NE (KOGA)

Fair
53.0 F

Imperial, Imperial Municipal Airport, NE (KIML)

Fair
57.0 F

Broken Bow, Broken Bow Municipal Airport, NE (KBBW)

Fair
50.0 F

McCook, McCook Municipal Airport, NE (KMCK)

Fair
52.0 F

Lexington, Jim Kelly Field Airport, NE (KLXN)

Fair
47.0 F